[[{"header":{"parameterUnit":"m.s-1","parameterCategory":1,"la1":30.2991,"la2":30.254,"lo1":-89.0895,"lo2":-89.0444,"dy":0.0017,"dx":0.0017,"nx":28,"ny":28,"refTime":"2024-06-13T03:00:00:Z","depth":0,"parameterNumber":2,"parameterNumberName":"U-component_of_WINDS"},"data":[0,0,0,0,0,0,0,0,0,0,0,0,0,0,0,0,0,0,0,0,0,0,0,0,0,0,0,0,0,0,0,0,0,0,0,0,0,0,0,0,0,0,0,0,0,0,0,0,0,0,0,0,0,0,0,0,0,0,-1.4458,-1.4457,0,-1.4383,-1.4382,-1.4381,-1.4271,-1.4269,-1.4267,-1.4265,-1.4189,-1.4188,-1.4188,0,0,0,0,0,0,0,0,0,0,0,0,0,-1.4508,-1.4508,-1.4458,-1.4457,-1.4456,-1.4383,-1.4382,-1.4381,-1.4271,-1.4269,-1.4266,-1.4264,-1.4189,-1.4188,-1.4188,0,0,0,0,0,0,0,0,0,0,0,0,0,-1.4465,-1.4508,-1.4458,-1.4393,-1.4386,-1.4383,-1.4382,-1.438,-1.4271,-1.4268,-1.4266,-1.4263,-1.4189,-1.4188,-1.4188,-1.4244,0,0,-1.4187,-1.4187,0,0,0,0,0,0,0,0,-1.4468,-1.4463,-1.4403,-1.4397,-1.439,-1.4333,-1.4371,-1.4334,-1.4272,-1.4315,-1.4265,-1.4261,-1.4239,-1.4234,-1.4226,-1.424,-1.4237,-1.4187,-1.4187,-1.4186,-1.4186,0,0,0,0,0,0,0,-1.4471,-1.4466,-1.4428,-1.4402,-1.4394,-1.4367,-1.4358,-1.4364,-1.4294,-1.4311,-1.4303,-1.4295,-1.4235,-1.4227,-1.4224,-1.4236,-1.4187,-1.4187,-1.4186,-1.4186,-1.4292,-1.4295,0,0,0,0,0,0,-1.4483,-1.4469,-1.443,-1.4426,-1.4422,-1.4369,-1.4358,-1.4354,-1.4294,-1.4282,-1.4298,-1.429,-1.4229,-1.4224,-1.4221,-1.4283,-1.4186,-1.4186,-1.4186,-1.4289,-1.4292,-1.4296,0,0,0,0,0,0,-1.4485,-1.4481,-1.4434,-1.4445,-1.4437,-1.4371,-1.4367,-1.4354,-1.4346,-1.4284,-1.4271,-1.4303,-1.4227,-1.4221,-1.4239,-1.4279,-1.4186,-1.4186,-1.4285,-1.429,-1.4294,-1.4407,0,0,0,0,0,0,-1.4487,-1.4482,-1.4502,-1.4447,-1.4437,-1.4453,-1.4369,-1.4355,-1.4346,-1.4336,-1.4285,-1.4274,-1.4224,-1.424,-1.4239,-1.4276,-1.4185,-1.4281,-1.4287,-1.4293,-1.44,-1.4415,-1.4428,0,0,0,0,0,-1.4489,-1.4537,-1.4504,-1.45,-1.4461,-1.4455,-1.445,-1.4391,-1.435,-1.437,-1.4329,-1.4276,-1.4274,-1.4243,-1.424,-1.4279,-1.4279,-1.4286,-1.4292,-1.4393,-1.4412,-1.4428,0,0,0,0,0,0,-1.46,-1.4529,-1.4491,-1.4522,-1.4496,-1.4437,-1.446,-1.4413,-1.4398,-1.4389,-1.4317,-1.4306,-1.4334,-1.4307,-1.4273,-1.433,-1.4268,-1.4275,-1.4346,-1.4363,-1.4377,-1.4384,-1.4185,0,0,0,0,0,-1.4628,-1.4629,-1.4567,-1.4601,-1.4589,-1.4528,-1.4523,-1.448,-1.445,-1.4438,-1.4399,-1.4372,-1.4365,-1.4362,-1.4353,-1.4395,-1.4383,-1.442,-1.4434,-1.4446,-1.4453,-1.4475,-1.4491,-1.4318,-1.4318,-1.4318,0,0,-1.4686,-1.4647,-1.4652,-1.4622,-1.4596,-1.46,-1.4519,-1.4526,-1.4528,-1.4439,-1.4453,-1.4424,-1.4389,-1.442,-1.4431,-1.4399,-1.4498,-1.4455,-1.4465,-1.4465,-1.4484,-1.45,-1.4515,-1.4323,-1.4322,-1.4321,0,0,-1.4794,-1.4764,-1.4789,-1.4765,-1.4727,-1.4686,-1.4693,-1.4641,-1.4618,-1.4631,-1.4565,-1.4566,-1.4556,-1.4534,-1.4522,-1.4622,-1.4573,-1.4621,-1.4696,-1.4718,-1.4732,-1.4744,-1.4781,-1.4795,-1.4628,-1.4628,-1.4628,0,-1.4871,-1.4873,-1.4809,-1.482,-1.4809,-1.4729,-1.4754,-1.4734,-1.4696,-1.469,-1.4654,-1.4641,-1.4611,-1.4636,-1.4661,-1.4653,-1.4659,-1.4627,-1.4735,-1.4746,-1.4756,-1.4791,-1.4805,-1.4634,-1.4634,-1.4633,-1.4632,0,-1.4971,-1.4973,-1.4999,-1.4963,-1.4955,-1.4974,-1.4913,-1.4912,-1.487,-1.4833,-1.4848,-1.481,-1.4792,-1.4794,-1.4753,-1.4813,-1.4795,-1.4748,-1.4685,-1.478,-1.4812,-1.4825,-1.4643,-1.4641,-1.4639,-1.4638,0,0,-1.5147,-1.5076,-1.5086,-1.507,-1.5022,-1.5023,-1.5039,-1.5021,-1.5022,-1.4998,-1.501,-1.5003,-1.496,-1.4946,-1.4902,-1.4921,-1.5005,-1.4872,-1.487,-1.4899,-1.5071,-1.5108,-1.5124,-1.4971,-1.4973,-1.4975,-1.5075,0,-1.5247,-1.5269,-1.5211,-1.5248,-1.5251,-1.5174,-1.5187,-1.516,-1.5126,-1.5123,-1.5084,-1.5082,-1.5024,-1.5015,-1.5031,-1.4992,-1.5039,-1.4983,-1.4983,-1.4983,-1.4996,-1.5141,-1.5179,-1.5275,-1.5086,-1.5088,-1.509,0,-1.5366,-1.5349,-1.5386,-1.5337,-1.5336,-1.5349,-1.5328,-1.5326,-1.5294,-1.5268,-1.5253,-1.5201,-1.5213,-1.5152,-1.5168,-1.5132,-1.5128,-1.5109,-1.5111,-1.511,-1.5044,-1.5145,-1.5304,-1.532,-1.5108,-1.5107,-1.5106,0,-1.5494,-1.5479,-1.5499,-1.5487,-1.543,-1.5442,-1.5418,-1.5383,-1.5376,-1.5358,-1.5353,-1.5337,-1.5329,-1.5318,-1.5264,-1.5224,-1.5287,-1.5221,-1.5267,-1.5269,-1.5285,-1.5285,-1.5448,-1.528,-1.528,-1.528,-1.5279,0,-1.5612,-1.5638,-1.5556,-1.5569,-1.5596,-1.553,-1.5559,-1.5528,-1.5497,-1.5503,-1.5435,-1.5443,-1.537,-1.5369,-1.5326,-1.5348,-1.5344,-1.5324,-1.5312,-1.5331,-1.5334,-1.5329,-1.5321,-1.5283,-1.5283,-1.5282,-1.5281,0,-1.5759,-1.5705,-1.5723,-1.5667,-1.5654,-1.5677,-1.5629,-1.5639,-1.56,-1.5609,-1.5607,-1.5547,-1.5543,-1.5487,-1.547,-1.5442,-1.5481,-1.5456,-1.5492,-1.5485,-1.5534,-1.5531,-1.5701,-1.572,-1.5539,-1.5541,-1.5542,0,-1.5839,-1.5858,-1.5804,-1.5803,-1.5784,-1.5783,-1.5776,-1.5711,-1.5706,-1.5671,-1.5686,-1.5676,-1.5665,-1.5663,-1.5618,-1.5605,-1.5581,-1.5641,-1.5578,-1.5597,-1.5584,-1.5584,-1.5586,-1.5655,-1.5657,-1.5659,-1.566,0,-1.5988,-1.596,-1.5952,-1.5936,-1.5929,-1.5913,-1.5892,-1.5895,-1.5824,-1.5823,-1.5818,-1.5809,-1.5793,-1.5785,-1.5764,-1.574,-1.569,-1.568,-1.569,-1.5711,-1.5732,-1.5723,-1.553,-1.5677,-1.5675,-1.5674,-1.5673,-1.5673,-1.6105,-1.6118,-1.6083,-1.6077,-1.6054,-1.6037,-1.6044,-1.6006,-1.6001,-1.5982,-1.5944,-1.5946,-1.5913,-1.5881,-1.5862,-1.5862,-1.5831,-1.5846,-1.585,-1.5855,-1.5866,-1.573,-1.5858,-1.5857,-1.5857,-1.5856,-1.5856,0,-1.6251,-1.6225,-1.622,-1.6193,-1.6189,-1.614,-1.6115,-1.6115,-1.6117,-1.6091,-1.6081,-1.6076,-1.6068,-1.6023,-1.601,-1.6019,-1.5995,-1.6018,-1.6018,-1.6013,-1.5893,-1.5886,-1.6037,-1.6037,-1.6037,-1.6037,-1.6037,-1.6037,-1.6327,-1.6347,-1.6316,-1.6325,-1.6298,-1.6299,-1.6289,-1.6273,-1.6252,-1.6249,-1.6242,-1.6212,-1.6179,-1.6163,-1.6154,-1.614,-1.614,-1.6171,-1.615,-1.6039,-1.6022,-1.6005,-1.5998,-1.617,-1.6171,-1.627,-1.6271,-1.6272]},{"header":{"parameterUnit":"m.s-1","parameterCategory":1,"la1":30.2991,"la2":30.254,"lo1":-89.0895,"lo2":-89.0444,"dy":0.0017,"dx":0.0017,"nx":28,"ny":28,"refTime":"2024-06-13T03:00:00:Z","depth":0,"parameterNumber":3,"parameterNumberName":"V-component_of_WINDS"},"data":[0,0,0,0,0,0,0,0,0,0,0,0,0,0,0,0,0,0,0,0,0,0,0,0,0,0,0,0,0,0,0,0,0,0,0,0,0,0,0,0,0,0,0,0,0,0,0,0,0,0,0,0,0,0,0,0,0,0,0.32,0.3199,0,0.3146,0.3146,0.3145,0.3111,0.311,0.311,0.311,0.3054,0.3053,0.3051,0,0,0,0,0,0,0,0,0,0,0,0,0,0.327,0.3269,0.32,0.3199,0.3198,0.3146,0.3145,0.3145,0.3111,0.311,0.311,0.311,0.3054,0.3053,0.3051,0,0,0,0,0,0,0,0,0,0,0,0,0,0.323,0.3269,0.32,0.3175,0.3172,0.3146,0.3145,0.3145,0.3111,0.311,0.311,0.311,0.3055,0.3053,0.3051,0.3045,0,0,0.3045,0.3044,0,0,0,0,0,0,0,0,0.3233,0.3228,0.3179,0.3177,0.3174,0.3135,0.315,0.3111,0.3111,0.3134,0.311,0.311,0.3081,0.3077,0.3067,0.3042,0.304,0.3045,0.3044,0.3043,0.3042,0,0,0,0,0,0,0,0.3235,0.323,0.3178,0.3179,0.3175,0.3166,0.316,0.3142,0.311,0.3132,0.3129,0.3124,0.3079,0.3069,0.3066,0.3039,0.3045,0.3043,0.3042,0.3041,0.3005,0.3005,0,0,0,0,0,0,0.3242,0.3232,0.318,0.3177,0.3203,0.3165,0.3158,0.3147,0.311,0.3104,0.3124,0.3122,0.3073,0.3068,0.3064,0.3053,0.3043,0.3041,0.304,0.3004,0.3005,0.3005,0,0,0,0,0,0,0.3244,0.3238,0.3182,0.3204,0.3196,0.3164,0.3152,0.3147,0.3137,0.3104,0.3098,0.312,0.3072,0.3066,0.305,0.3051,0.304,0.3038,0.3004,0.3005,0.3005,0.3032,0,0,0,0,0,0,0.3246,0.3239,0.3237,0.3204,0.3195,0.317,0.3152,0.3146,0.3134,0.3131,0.3098,0.3093,0.3072,0.3053,0.3048,0.3048,0.3037,0.3004,0.3004,0.3005,0.3031,0.3033,0.3035,0,0,0,0,0,0.3249,0.3247,0.3237,0.3231,0.3192,0.317,0.3165,0.3141,0.3134,0.3131,0.311,0.3094,0.3052,0.3051,0.3045,0.3045,0.3004,0.3004,0.3005,0.303,0.3033,0.3035,0,0,0,0,0,0,0.328,0.3242,0.3231,0.3218,0.3198,0.3164,0.316,0.3145,0.3126,0.3124,0.3095,0.3088,0.3074,0.3058,0.3058,0.3036,0.3026,0.3025,0.3047,0.3049,0.3052,0.3055,0.3035,0,0,0,0,0,0.3286,0.3272,0.3239,0.3231,0.3221,0.3193,0.3182,0.3166,0.3143,0.3134,0.3111,0.3089,0.3071,0.3059,0.3041,0.3029,0.302,0.3025,0.3028,0.303,0.3029,0.302,0.3021,0.3006,0.3006,0.3006,0,0,0.3297,0.3275,0.3267,0.3237,0.3219,0.3204,0.3185,0.3171,0.3159,0.3131,0.3114,0.3097,0.307,0.3055,0.3048,0.3041,0.3031,0.303,0.3032,0.303,0.302,0.3022,0.3023,0.3007,0.3007,0.3007,0,0,0.331,0.3292,0.3282,0.3265,0.3238,0.3218,0.3216,0.3185,0.3172,0.3154,0.3133,0.3118,0.3088,0.3069,0.3056,0.306,0.3044,0.3055,0.3066,0.3057,0.3058,0.3059,0.306,0.306,0.3055,0.3055,0.3055,0,0.3327,0.3304,0.3279,0.3266,0.3252,0.3227,0.3216,0.32,0.3168,0.3159,0.3153,0.3113,0.3094,0.3073,0.3074,0.3065,0.306,0.3058,0.306,0.3061,0.3061,0.3061,0.3062,0.3056,0.3056,0.3056,0.3056,0,0.3326,0.331,0.3306,0.3276,0.3262,0.325,0.3222,0.3211,0.3196,0.3177,0.3158,0.3134,0.3109,0.3103,0.3088,0.308,0.3077,0.3066,0.3055,0.3065,0.3064,0.3064,0.3058,0.3058,0.3057,0.3057,0,0,0.3356,0.3312,0.3311,0.3296,0.3264,0.3251,0.3238,0.3214,0.3204,0.3183,0.317,0.3144,0.3133,0.3118,0.3101,0.3093,0.3096,0.3083,0.3082,0.3085,0.3085,0.3092,0.3093,0.3086,0.3086,0.3086,0.3086,0,0.3363,0.3338,0.3314,0.3297,0.3281,0.3257,0.3244,0.3223,0.3205,0.3189,0.3168,0.315,0.3138,0.3128,0.312,0.3098,0.3096,0.3098,0.3072,0.3072,0.3079,0.3093,0.3101,0.3103,0.3086,0.3086,0.3086,0,0.3367,0.3347,0.3328,0.3296,0.3289,0.3279,0.3254,0.3239,0.3214,0.3201,0.3184,0.3165,0.3148,0.314,0.3115,0.3117,0.3105,0.3093,0.3092,0.3088,0.3079,0.3088,0.3103,0.3103,0.3086,0.3086,0.3086,0,0.339,0.3358,0.3342,0.333,0.3293,0.3286,0.3271,0.3245,0.3232,0.321,0.3201,0.3178,0.3165,0.3147,0.3122,0.3118,0.31,0.3089,0.3088,0.3088,0.3084,0.3085,0.3097,0.3079,0.3079,0.3079,0.3079,0,0.3399,0.3388,0.3351,0.3341,0.3328,0.3301,0.3288,0.327,0.3248,0.3233,0.3211,0.3197,0.3166,0.3149,0.3129,0.3111,0.3106,0.3094,0.3089,0.3096,0.3097,0.3087,0.3086,0.3079,0.3079,0.3079,0.3079,0,0.3421,0.3397,0.3377,0.3344,0.3335,0.3327,0.3297,0.3286,0.3267,0.3249,0.3243,0.3212,0.319,0.3164,0.3134,0.3121,0.3104,0.3097,0.3113,0.311,0.3109,0.3109,0.3114,0.3113,0.3097,0.3097,0.3098,0,0.3428,0.3419,0.3384,0.3373,0.3358,0.334,0.3326,0.33,0.3286,0.3256,0.3248,0.3225,0.3205,0.3171,0.3146,0.3122,0.3113,0.3117,0.311,0.3116,0.3112,0.3112,0.3111,0.3118,0.3119,0.3119,0.3119,0,0.3442,0.343,0.3411,0.3388,0.3372,0.3352,0.3332,0.3324,0.3292,0.3278,0.3256,0.324,0.3209,0.3186,0.3159,0.3141,0.3125,0.3122,0.312,0.3126,0.3135,0.3129,0.3117,0.3121,0.3121,0.3121,0.3121,0.3121,0.3456,0.3446,0.342,0.3399,0.3381,0.3362,0.335,0.3328,0.331,0.3282,0.3268,0.3245,0.3219,0.3181,0.3165,0.3146,0.314,0.3138,0.3137,0.3137,0.3138,0.3139,0.3141,0.3141,0.3141,0.3141,0.3141,0,0.3468,0.345,0.3431,0.3403,0.3386,0.3372,0.3348,0.3335,0.3316,0.3293,0.3274,0.3248,0.3225,0.3197,0.3172,0.3163,0.3154,0.3157,0.3157,0.3153,0.3146,0.3149,0.3164,0.3164,0.3164,0.3164,0.3164,0.3164,0.3472,0.3454,0.3439,0.3412,0.3393,0.3372,0.3359,0.3341,0.3322,0.3294,0.3275,0.3258,0.3233,0.3205,0.3183,0.3176,0.3167,0.3172,0.3162,0.3156,0.3154,0.3152,0.3155,0.3171,0.3171,0.3171,0.3171,0.3171]}]]